EW3814 Weather Reports


Display with metric or nautical units.
time (UTC)temp
F
wind
direction
speed
MPH
gust
MPH
rain 1hr
in
rain 24hr
in
rain mn
in
humidity
%
barometer
mb
20180716160239 83 65 0.0 0.0 0.00 0.00 0.00 78 1017.9
20180716155739 83 66 0.0 0.0 0.00 0.00 0.00 80 1017.9
20180716155240 83 66 0.0 0.0 0.00 0.00 0.00 78 1017.9
20180716154740 82 84 0.0 0.0 0.00 0.00 0.00 80 1017.9
20180716154237 82 86 0.0 0.0 0.00 0.00 0.00 82 1017.9
20180716153738 82 86 0.0 0.0 0.00 0.00 0.00 81 1017.8
20180716153237 81 86 0.0 0.0 0.00 0.00 0.00 81 1017.8
20180716152737 81 84 0.0 0.0 0.00 0.00 0.00 82 1017.8
20180716152238 81 84 0.0 0.0 0.00 0.00 0.00 83 1017.8
20180716151736 80 84 0.0 0.0 0.00 0.00 0.00 83 1017.8
20180716151238 80 84 0.0 0.0 0.00 0.00 0.00 83 1017.7
20180716150736 80 67 0.0 0.0 0.00 0.00 0.00 83 1017.8
20180716150236 80 15 0.0 0.0 0.00 0.00 0.00 83 1017.7
20180716145739 80 15 0.0 0.0 0.00 0.00 0.00 85 1017.7
20180716145235 80 15 0.0 0.0 0.00 0.00 0.00 84 1017.7
20180716144736 80 15 0.0 0.0 0.00 0.00 0.00 85 1017.7
20180716144235 80 15 0.0 0.0 0.00 0.00 0.00 85 1017.6
20180716143734 79 15 0.0 0.0 0.00 0.00 0.00 85 1017.7
20180716143234 79 15 0.0 0.0 0.00 0.00 0.00 84 1017.6
20180716142735 79 90 0.0 0.0 0.00 0.00 0.00 85 1017.6
20180716142236 79 138 0.0 0.0 0.00 0.00 0.00 85 1017.5
20180716141735 79 138 0.0 0.0 0.00 0.00 0.00 85 1017.5
20180716141234 79 138 0.0 0.0 0.00 0.00 0.00 85 1017.5
20180716140734 79 138 0.0 0.0 0.00 0.00 0.00 85 1017.5
20180716140231 79 138 0.0 0.0 0.00 0.00 0.00 85 1017.4
20180716135732 79 138 0.0 0.0 0.00 0.00 0.00 85 1017.4
20180716135231 78 138 0.0 0.0 0.00 0.00 0.00 86 1017.5
20180716134731 78 138 0.0 0.0 0.00 0.00 0.00 86 1017.4
20180716134231 78 138 0.0 0.0 0.00 0.00 0.00 87 1017.4
20180716133732 78 138 0.0 0.0 0.00 0.00 0.00 87 1017.4
20180716133230 77 138 0.0 0.0 0.00 0.00 0.00 87 1017.3
20180716132731 77 138 0.0 0.0 0.00 0.00 0.00 87 1017.3
20180716132230 77 138 0.0 0.0 0.00 0.00 0.00 87 1017.3
20180716131730 77 146 0.0 0.0 0.00 0.00 0.00 88 1017.3
20180716131230 77 146 0.0 0.0 0.00 0.00 0.00 89 1017.3
20180716130732 76 146 0.0 0.0 0.00 0.00 0.00 89 1017.2
20180716130231 76 146 0.0 0.0 0.00 0.00 0.00 89 1017.3
20180716125732 76 169 0.0 3.0 0.00 0.00 0.00 89 1017.3
20180716125231 75 159 0.0 3.0 0.00 0.00 0.00 89 1017.2
20180716124731 75 157 0.0 0.0 0.00 0.00 0.00 90 1017.1
20180716124230 75 173 0.0 0.0 0.00 0.00 0.00 90 1017.1
20180716123731 75 165 0.0 0.0 0.00 0.00 0.00 91 1017.1
20180716123232 75 92 0.0 0.0 0.00 0.00 0.00 91 1017.1
20180716122732 75 43 0.0 0.0 0.00 0.00 0.00 91 1017.1
20180716122230 75 43 0.0 0.0 0.00 0.00 0.00 91 1017.0
20180716121732 74 43 0.0 0.0 0.00 0.00 0.00 91 1017.0
20180716121231 74 43 0.0 0.0 0.00 0.00 0.00 91 1017.0
20180716120732 74 43 0.0 0.0 0.00 0.00 0.00 91 1016.8
20180716120230 74 43 0.0 0.0 0.00 0.00 0.00 91 1016.7
20180716115732 74 43 0.0 0.0 0.00 0.00 0.00 91 1016.7
20180716115230 74 43 0.0 0.0 0.00 0.00 0.00 91 1016.6
20180716114730 74 43 0.0 0.0 0.00 0.00 0.00 92 1016.6
20180716114230 74 43 0.0 0.0 0.00 0.00 0.00 92 1016.5
20180716113732 74 43 0.0 0.0 0.00 0.00 0.00 91 1016.5
20180716113231 74 43 0.0 0.0 0.00 0.00 0.00 92 1016.4
20180716112732 74 43 0.0 0.0 0.00 0.00 0.00 91 1016.5
20180716112232 74 43 0.0 0.0 0.00 0.00 0.00 91 1016.5
20180716111730 74 43 0.0 0.0 0.00 0.00 0.00 91 1016.4
20180716111230 74 155 0.0 0.0 0.00 0.00 0.00 91 1016.4
20180716110730 74 155 0.0 0.0 0.00 0.00 0.00 91 1016.5
20180716110228 74 155 0.0 0.0 0.00 0.00 0.00 91 1016.4
20180716105729 74 155 0.0 0.0 0.00 0.00 0.00 91 1016.4
20180716105228 74 155 0.0 0.0 0.00 0.00 0.00 91 1016.4
20180716104728 74 155 0.0 0.0 0.00 0.00 0.00 91 1016.4
20180716104228 74 155 0.0 0.0 0.00 0.00 0.00 91 1016.4
20180716103729 74 155 0.0 0.0 0.00 0.00 0.00 91 1016.3
20180716103230 74 155 0.0 0.0 0.00 0.00 0.00 91 1016.3
20180716102727 74 155 0.0 0.0 0.00 0.00 0.00 91 1016.2
20180716102227 74 155 0.0 0.0 0.00 0.00 0.00 92 1016.2
20180716101727 74 155 0.0 0.0 0.00 0.00 0.00 92 1016.3
20180716101225 74 155 0.0 0.0 0.00 0.00 0.00 92 1016.3
20180716100724 74 155 0.0 0.0 0.00 0.00 0.00 92 1016.3
20180716100224 74 155 0.0 0.0 0.00 0.00 0.00 92 1016.3
20180716095725 74 155 0.0 0.0 0.00 0.00 0.00 92 1016.4
20180716095225 74 155 0.0 0.0 0.00 0.00 0.00 92 1016.4
20180716094726 74 155 0.0 0.0 0.00 0.00 0.00 92 1016.4
20180716094224 74 155 0.0 0.0 0.00 0.00 0.00 92 1016.5
20180716093725 74 155 0.0 0.0 0.00 0.00 0.00 92 1016.5
20180716093225 74 156 0.0 0.0 0.00 0.00 0.00 92 1016.5
20180716092725 74 156 0.0 0.0 0.00 0.00 0.00 92 1016.4
20180716092222 74 156 0.0 0.0 0.00 0.00 0.00 92 1016.4
20180716091722 74 156 0.0 0.0 0.00 0.00 0.00 93 1016.5
20180716091224 74 161 0.0 0.0 0.00 0.00 0.00 93 1016.5
20180716090722 74 161 0.0 0.0 0.00 0.00 0.00 93 1016.5
20180716090222 74 168 0.0 0.0 0.00 0.00 0.00 92 1016.6
20180716085722 74 152 0.0 0.0 0.00 0.00 0.00 92 1016.5
20180716085222 74 154 0.0 0.0 0.00 0.00 0.00 92 1016.6
20180716084723 74 179 0.0 0.0 0.00 0.00 0.00 92 1016.5
20180716084222 74 179 0.0 0.0 0.00 0.00 0.00 92 1016.5
20180716083723 74 179 0.0 0.0 0.00 0.00 0.00 91 1016.5
20180716083220 74 179 0.0 0.0 0.00 0.00 0.00 91 1016.5
20180716082720 74 179 0.0 0.0 0.00 0.00 0.00 91 1016.5
20180716082221 75 179 0.0 0.0 0.00 0.00 0.00 90 1016.5
20180716081720 75 179 0.0 0.0 0.00 0.00 0.00 90 1016.6
20180716081220 75 179 0.0 0.0 0.00 0.00 0.00 90 1016.6
20180716080721 75 182 0.0 0.0 0.00 0.00 0.00 90 1016.6
20180716080220 75 182 0.0 0.0 0.00 0.00 0.00 90 1016.6
20180716075721 75 182 0.0 0.0 0.00 0.00 0.00 90 1016.6
20180716075221 75 182 0.0 0.0 0.00 0.00 0.00 90 1016.6
20180716074719 75 192 0.0 0.0 0.00 0.00 0.00 89 1016.7
20180716074219 75 192 0.0 0.0 0.00 0.00 0.00 89 1016.7
20180716073719 75 191 0.0 0.0 0.00 0.00 0.00 89 1016.8
20180716073219 75 156 0.0 0.0 0.00 0.00 0.00 89 1016.8
20180716072719 75 156 0.0 0.0 0.00 0.00 0.00 89 1017.0
20180716072218 75 156 0.0 0.0 0.00 0.00 0.00 88 1016.8
20180716071719 75 148 0.0 0.0 0.00 0.00 0.00 88 1016.8
20180716071218 75 148 0.0 0.0 0.00 0.00 0.00 88 1017.0
20180716070719 75 148 0.0 0.0 0.00 0.00 0.00 88 1017.0
20180716070218 75 148 0.0 0.0 0.00 0.00 0.00 88 1017.0
20180716065716 75 148 0.0 0.0 0.00 0.00 0.00 88 1017.0
20180716065215 76 148 0.0 0.0 0.00 0.00 0.00 88 1017.0
20180716064714 76 148 0.0 0.0 0.00 0.00 0.00 88 1017.0
20180716064215 76 148 0.0 0.0 0.00 0.00 0.00 88 1016.8
20180716063712 76 148 0.0 0.0 0.00 0.00 0.00 87 1017.0
20180716063212 76 148 0.0 0.0 0.00 0.00 0.00 87 1017.0
20180716062713 76 148 0.0 0.0 0.00 0.00 0.00 87 1017.0
20180716062212 76 148 0.0 0.0 0.00 0.00 0.00 87 1017.1
20180716061709 76 148 0.0 0.0 0.00 0.00 0.00 87 1017.1
20180716061211 76 148 0.0 0.0 0.00 0.00 0.00 87 1017.1
20180716060710 76 148 0.0 0.0 0.00 0.00 0.00 86 1017.1
20180716060207 76 148 0.0 0.0 0.00 0.00 0.00 86 1017.1
20180716055709 76 148 0.0 0.0 0.00 0.00 0.00 86 1017.2
20180716055208 76 148 0.0 0.0 0.00 0.00 0.00 86 1017.2
20180716054709 76 148 0.0 0.0 0.00 0.00 0.00 86 1017.2
20180716054208 76 148 0.0 0.0 0.00 0.00 0.00 86 1017.2
20180716053709 76 148 0.0 0.0 0.00 0.00 0.00 86 1017.2
20180716053208 76 148 0.0 0.0 0.00 0.00 0.00 85 1017.1
20180716052708 76 148 0.0 0.0 0.00 0.00 0.00 85 1017.1
20180716052208 76 148 0.0 0.0 0.00 0.00 0.00 85 1017.1
20180716051708 76 148 0.0 0.0 0.00 0.00 0.00 85 1017.1
20180716051208 76 148 0.0 0.0 0.00 0.00 0.00 85 1017.1
20180716050705 77 148 0.0 0.0 0.00 0.00 0.00 85 1017.1
20180716050207 77 148 0.0 0.0 0.00 0.00 0.00 85 1017.0
20180716045705 77 148 0.0 0.0 0.00 0.00 0.00 84 1017.0
20180716045205 77 148 0.0 0.0 0.00 0.00 0.00 84 1017.1
20180716044707 77 148 0.0 0.0 0.00 0.00 0.00 84 1017.1
20180716044205 77 148 0.0 0.0 0.00 0.00 0.00 84 1016.8
20180716043706 77 148 0.0 0.0 0.00 0.00 0.00 84 1016.8
20180716043207 77 148 0.0 0.0 0.00 0.00 0.00 84 1016.8
20180716042706 77 148 0.0 0.0 0.00 0.00 0.00 84 1017.0
20180716042207 77 148 0.0 0.0 0.00 0.00 0.00 83 1017.0
20180716041706 77 147 0.0 0.0 0.00 0.00 0.00 83 1017.0
20180716041207 77 143 0.0 0.0 0.00 0.00 0.00 83 1017.1
20180716040705 78 151 0.0 0.0 0.00 0.00 0.00 83 1017.1
20180716040207 78 146 0.0 0.0 0.00 0.00 0.00 83 1017.1
20180716035706 78 146 0.0 0.0 0.00 0.00 0.00 83 1017.1
20180716035203 78 146 0.0 0.0 0.00 0.00 0.00 82 1017.1
20180716034703 78 152 0.0 0.0 0.00 0.00 0.00 81 1017.1
20180716034203 78 152 0.0 0.0 0.00 0.00 0.00 80 1017.1
20180716033701 78 152 0.0 0.0 0.00 0.00 0.00 80 1017.0
20180716033201 78 152 0.0 0.0 0.00 0.00 0.00 80 1017.0
20180716032700 78 152 0.0 0.0 0.00 0.00 0.00 79 1017.1
20180716032202 78 152 0.0 0.0 0.00 0.00 0.00 78 1017.1
20180716031701 78 152 0.0 0.0 0.00 0.00 0.00 78 1017.1
20180716031201 78 183 0.0 3.0 0.00 0.00 0.00 77 1017.0
20180716030700 78 146 1.0 6.0 0.00 0.00 0.00 77 1017.1
20180716030201 78 196 0.0 6.0 0.00 0.00 0.00 76 1017.0
20180716025702 78 161 0.0 0.0 0.00 0.00 0.00 76 1017.1
20180716025201 78 158 0.0 0.0 0.00 0.00 0.00 75 1017.0
20180716024701 78 169 0.0 1.0 0.00 0.00 0.00 74 1016.8
20180716024201 78 161 0.0 2.0 0.00 0.00 0.00 73 1016.8
20180716023701 78 167 0.0 2.0 0.00 0.00 0.00 72 1016.8
20180716023202 78 159 0.0 0.0 0.00 0.00 0.00 72 1016.7
20180716022700 78 159 0.0 0.0 0.00 0.00 0.00 73 1016.6
20180716022200 78 159 0.0 0.0 0.00 0.00 0.00 72 1016.4
20180716021702 79 159 0.0 0.0 0.00 0.00 0.00 73 1016.3
20180716021202 79 159 0.0 0.0 0.00 0.00 0.00 73 1016.2
20180716020707 79 159 0.0 0.0 0.00 0.00 0.00 72 1016.1
20180716020200 79 159 0.0 0.0 0.00 0.00 0.00 71 1016.0
20180716015702 80 159 0.0 0.0 0.00 0.00 0.00 70 1015.9
20180716015201 80 159 0.0 0.0 0.00 0.00 0.00 70 1015.8
20180716014701 80 159 0.0 0.0 0.00 0.00 0.00 69 1015.8
20180716014200 80 159 0.0 0.0 0.00 0.00 0.00 69 1015.7
20180716013702 81 159 0.0 0.0 0.00 0.00 0.00 69 1015.7
20180716013200 81 159 0.0 0.0 0.00 0.00 0.00 69 1015.6
20180716012702 81 159 0.0 0.0 0.00 0.00 0.00 68 1015.6
20180716012200 82 159 0.0 0.0 0.00 0.00 0.00 68 1015.6
20180716011702 82 159 0.0 0.0 0.00 0.00 0.00 69 1015.5
20180716011200 82 159 0.0 0.0 0.00 0.00 0.00 68 1015.6
20180716010702 82 159 0.0 0.0 0.00 0.00 0.00 67 1015.6
20180716010200 82 159 0.0 0.0 0.00 0.00 0.00 66 1015.5
20180716005701 82 159 0.0 0.0 0.00 0.00 0.00 68 1015.6
20180716005201 83 159 0.0 2.0 0.00 0.00 0.00 68 1015.7
20180716004701 83 159 0.0 2.0 0.00 0.00 0.00 68 1015.7
20180716004158 83 159 0.0 3.0 0.00 0.00 0.00 69 1015.8
20180716003659 83 159 0.0 3.0 0.00 0.00 0.00 69 1015.8
20180716003200 83 153 0.0 2.0 0.00 0.00 0.00 70 1015.7
20180716002659 83 40 0.0 1.0 0.00 0.00 0.00 70 1015.7
20180716002157 84 325 0.0 0.0 0.00 0.00 0.00 70 1015.6
20180716001654 84 325 0.0 0.0 0.00 0.00 0.00 69 1015.6
20180716001154 84 289 0.0 1.0 0.00 0.00 0.00 69 1015.5
20180716000654 84 334 0.0 1.0 0.00 0.00 0.00 68 1015.5
20180716000156 85 329 0.0 0.0 0.00 0.00 0.00 68 1015.4
20180715235654 85 329 0.0 0.0 0.00 0.00 0.00 67 1015.3
20180715235154 85 329 0.0 0.0 0.00 0.00 0.00 67 1015.4
20180715234653 85 329 0.0 0.0 0.00 0.00 0.00 67 1015.3
20180715234154 85 329 0.0 0.0 0.00 0.00 0.00 66 1015.3
20180715233705 85 329 0.0 0.0 0.00 0.00 0.00 66 1015.3
20180715233151 86 329 0.0 0.0 0.00 0.00 0.00 65 1015.3
20180715232649 86 329 0.0 0.0 0.00 0.00 0.00 66 1015.3
20180715232149 86 329 0.0 0.0 0.00 0.00 0.00 65 1015.2
20180715231648 86 329 0.0 1.0 0.00 0.00 0.00 64 1015.1
20180715231149 86 271 0.0 1.0 0.00 0.00 0.00 64 1015.1
20180715230649 86 106 0.0 0.0 0.00 0.00 0.00 63 1015.1
20180715230148 86 106 0.0 0.0 0.00 0.00 0.00 61 1015.1
20180715225648 87 106 0.0 0.0 0.00 0.00 0.00 62 1015.0
20180715225150 87 198 0.0 0.0 0.00 0.00 0.00 63 1015.0
20180715224648 87 248 0.0 0.0 0.00 0.00 0.00 62 1014.9
20180715224148 87 330 0.0 0.0 0.00 0.00 0.00 63 1014.9
20180715223646 87 104 0.0 0.0 0.00 0.00 0.00 61 1014.9
20180715223147 87 273 0.0 0.0 0.00 0.00 0.00 60 1014.8
20180715222647 87 275 0.0 0.0 0.00 0.00 0.00 60 1014.8
20180715222147 87 269 0.0 0.0 0.00 0.00 0.00 59 1014.8
20180715221646 87 270 0.0 0.0 0.00 0.00 0.00 61 1014.8
20180715221146 87 269 0.0 1.0 0.00 0.00 0.00 61 1014.9
20180715220647 87 269 0.0 1.0 0.00 0.00 0.00 57 1014.9
20180715220147 88 338 0.0 4.0 0.00 0.00 0.00 61 1014.8
20180715215647 88 338 0.0 4.0 0.00 0.00 0.00 57 1014.9
20180715215145 87 220 0.0 2.0 0.00 0.00 0.00 56 1015.0
20180715214644 87 319 0.0 0.0 0.00 0.00 0.00 57 1015.0
20180715214144 87 149 0.0 0.0 0.00 0.00 0.00 59 1015.1
20180715213645 88 152 0.0 1.0 0.00 0.00 0.00 60 1015.1
20180715213144 88 149 0.0 1.0 0.00 0.00 0.00 58 1015.0
20180715212645 88 154 0.0 0.0 0.00 0.00 0.00 58 1015.0
20180715212144 88 154 0.0 0.0 0.00 0.00 0.00 60 1015.1
20180715211644 88 207 0.0 1.0 0.00 0.00 0.00 58 1015.1
20180715211145 89 88 0.0 1.0 0.00 0.00 0.00 55 1015.0
20180715210643 89 119 0.0 0.0 0.00 0.00 0.00 57 1015.0
20180715210143 89 115 0.0 0.0 0.00 0.00 0.00 59 1015.1
20180715205642 89 115 0.0 0.0 0.00 0.00 0.00 57 1015.2
20180715205143 89 98 0.0 0.0 0.00 0.00 0.00 58 1015.2
20180715204641 89 166 0.0 0.0 0.00 0.00 0.00 58 1015.2
20180715204141 89 124 0.0 0.0 0.00 0.00 0.00 57 1015.3
20180715203640 89 124 0.0 0.0 0.00 0.00 0.00 57 1015.4
20180715203141 89 84 0.0 0.0 0.00 0.00 0.00 56 1015.4
20180715202638 89 81 0.0 0.0 0.00 0.00 0.00 55 1015.5
20180715202138 89 138 0.0 2.0 0.00 0.00 0.00 53 1015.6
20180715201637 89 142 0.0 3.0 0.00 0.00 0.00 56 1015.7
20180715201136 90 131 0.0 3.0 0.00 0.00 0.00 54 1015.8
20180715200637 90 222 0.0 1.0 0.00 0.00 0.00 56 1015.8
20180715200137 90 38 0.0 1.0 0.00 0.00 0.00 54 1015.9
20180715195637 91 314 0.0 0.0 0.00 0.00 0.00 55 1016.0
20180715195135 90 146 0.0 0.0 0.00 0.00 0.00 52 1016.2
20180715194635 90 55 0.0 0.0 0.00 0.00 0.00 57 1016.3
20180715194133 91 54 0.0 0.0 0.00 0.00 0.00 53 1016.3
20180715193634 91 23 0.0 0.0 0.00 0.00 0.00 52 1016.4
20180715193134 91 121 0.0 0.0 0.00 0.00 0.00 51 1016.5
20180715192633 91 107 0.0 0.0 0.00 0.00 0.00 53 1016.5
20180715192131 91 153 0.0 0.0 0.00 0.00 0.00 54 1016.6
20180715191633 91 154 0.0 0.0 0.00 0.00 0.00 55 1016.6
20180715191132 91 59 0.0 0.0 0.00 0.00 0.00 57 1016.7
20180715190631 91 248 0.0 0.0 0.00 0.00 0.00 54 1016.6
20180715190132 91 311 0.0 0.0 0.00 0.00 0.00 55 1016.7
20180715185629 91 334 0.0 0.0 0.00 0.00 0.00 54 1016.8
20180715185131 91 81 0.0 0.0 0.00 0.00 0.00 61 1016.8
20180715184630 90 52 0.0 0.0 0.00 0.00 0.00 54 1016.8
20180715184129 90 23 0.0 0.0 0.00 0.00 0.00 55 1016.8
20180715183630 90 123 0.0 0.0 0.00 0.00 0.00 55 1017.0
20180715183131 90 145 0.0 0.0 0.00 0.00 0.00 56 1017.1
20180715182631 90 94 0.0 0.0 0.00 0.00 0.00 54 1017.1
20180715182130 90 160 0.0 0.0 0.00 0.00 0.00 57 1017.1
20180715181629 90 81 0.0 0.0 0.00 0.00 0.00 54 1017.2
20180715181131 89 121 0.0 0.0 0.00 0.00 0.00 60 1017.3
20180715180629 89 123 0.0 0.0 0.00 0.00 0.00 62 1017.4
20180715180129 89 123 0.0 0.0 0.00 0.00 0.00 59 1017.4
20180715175630 88 105 0.0 0.0 0.00 0.00 0.00 62 1017.4
20180715175131 88 117 0.0 0.0 0.00 0.00 0.00 64 1017.5
20180715174629 87 319 0.0 0.0 0.00 0.00 0.00 64 1017.6
20180715174131 87 338 0.0 0.0 0.00 0.00 0.00 61 1017.6
20180715173630 88 140 0.0 0.0 0.00 0.00 0.00 63 1017.6
20180715173129 88 77 0.0 0.0 0.00 0.00 0.00 63 1017.7
20180715172629 88 46 0.0 0.0 0.00 0.00 0.00 66 1017.7
20180715172130 87 348 0.0 0.0 0.00 0.00 0.00 65 1017.8
20180715171629 87 11 0.0 0.0 0.00 0.00 0.00 65 1017.7
20180715171131 87 139 0.0 0.0 0.00 0.00 0.00 66 1017.8
20180715170629 87 302 0.0 0.0 0.00 0.00 0.00 66 1017.9
20180715170131 87 302 0.0 0.0 0.00 0.00 0.00 65 1017.9
20180715165629 87 40 0.0 0.0 0.00 0.00 0.00 66 1017.9
20180715165131 87 33 0.0 0.0 0.00 0.00 0.00 65 1017.9
20180715164629 87 24 0.0 0.0 0.00 0.00 0.00 64 1017.9
20180715164128 87 11 0.0 0.0 0.00 0.00 0.00 72 1017.9
20180715163629 87 69 0.0 0.0 0.00 0.00 0.00 67 1017.9
20180715163127 87 27 0.0 0.0 0.00 0.00 0.00 68 1018.0
20180715162628 87 29 0.0 0.0 0.00 0.00 0.00 69 1018.0
20180715162127 86 167 0.0 0.0 0.00 0.00 0.00 67 1018.1
20180715161628 86 167 0.0 0.0 0.00 0.00 0.00 67 1018.2
20180715161126 86 142 0.0 0.0 0.00 0.00 0.00 70 1018.2
20180715160626 85 152 0.0 0.0 0.00 0.00 0.00 67 1018.2